Time,TemperatureF,DewpointF,PressureIn,WindDirection,WindDirectionDegrees,WindSpeedMPH,WindSpeedGustMPH,Humidity,HourlyPrecipIn,Conditions,Clouds,dailyrainin,SoftwareType,DateUTC
2013-03-12 00:00:00,49.6,21.0,29.53,North,-999,0.0,0.0,32,0.00,,,0.00,LWC V1.12 B30,2013-03-12 06:00:00,
2013-03-12 00:05:00,49.4,20.8,29.53,North,-999,0.0,0.0,32,0.00,,,0.00,LWC V1.12 B30,2013-03-12 06:05:00,
2013-03-12 00:10:00,49.3,20.7,29.53,North,-999,0.0,0.0,32,0.00,,,0.00,LWC V1.12 B30,2013-03-12 06:10:00,
2013-03-12 00:15:00,49.2,21.3,29.53,North,-999,0.0,0.0,33,0.00,,,0.00,LWC V1.12 B30,2013-03-12 06:15:00,
2013-03-12 00:20:00,49.0,21.2,29.53,North,-999,0.0,0.0,33,0.00,,,0.00,LWC V1.12 B30,2013-03-12 06:20:00,
2013-03-12 00:25:00,48.9,21.1,29.53,North,-999,0.0,0.0,33,0.00,,,0.00,LWC V1.12 B30,2013-03-12 06:25:00,
2013-03-12 00:30:00,48.8,21.7,29.53,North,-999,0.0,0.0,34,0.00,,,0.00,LWC V1.12 B30,2013-03-12 06:30:00,
2013-03-12 00:35:00,48.7,21.6,29.53,North,-999,0.0,0.0,34,0.00,,,0.00,LWC V1.12 B30,2013-03-12 06:35:00,
2013-03-12 00:40:00,48.5,21.4,29.53,North,-999,0.0,0.0,34,0.00,,,0.00,LWC V1.12 B30,2013-03-12 06:40:00,
2013-03-12 00:45:00,48.4,22.0,29.53,North,-999,0.0,0.0,35,0.00,,,0.00,LWC V1.12 B30,2013-03-12 06:45:00,
2013-03-12 00:50:00,48.1,21.1,29.53,North,-999,0.0,0.0,34,0.00,,,0.00,LWC V1.12 B30,2013-03-12 06:50:00,
2013-03-12 00:55:00,47.9,21.6,29.53,North,-999,0.0,0.0,35,0.00,,,0.00,LWC V1.12 B30,2013-03-12 06:55:00,
2013-03-12 01:00:00,47.8,21.5,29.53,North,-999,0.0,0.0,35,0.00,,,0.00,LWC V1.12 B30,2013-03-12 07:00:00,
2013-03-12 01:05:00,47.5,21.2,29.53,North,-999,0.0,0.0,35,0.00,,,0.00,LWC V1.12 B30,2013-03-12 07:05:00,
2013-03-12 01:10:00,47.5,22.5,29.53,North,-999,0.0,0.0,37,0.00,,,0.00,LWC V1.12 B30,2013-03-12 07:10:00,
2013-03-12 01:15:00,47.4,21.8,29.53,North,-999,0.0,0.0,36,0.00,,,0.00,LWC V1.12 B30,2013-03-12 07:15:00,
2013-03-12 01:20:00,47.3,22.4,29.53,North,-999,0.0,0.0,37,0.00,,,0.00,LWC V1.12 B30,2013-03-12 07:20:00,
2013-03-12 01:25:00,47.3,22.4,29.53,North,-999,0.0,0.0,37,0.00,,,0.00,LWC V1.12 B30,2013-03-12 07:25:00,
2013-03-12 01:30:00,47.2,22.3,29.53,North,-999,0.0,0.0,37,0.00,,,0.00,LWC V1.12 B30,2013-03-12 07:30:00,
2013-03-12 01:36:00,47.2,22.3,29.53,North,-999,0.0,0.0,37,0.00,,,0.00,LWC V1.12 B30,2013-03-12 07:36:00,
2013-03-12 01:41:00,47.1,22.8,29.53,North,-999,0.0,0.0,38,0.00,,,0.00,LWC V1.12 B30,2013-03-12 07:41:00,
2013-03-12 01:46:00,47.0,22.1,29.53,North,-999,0.0,0.0,37,0.00,,,0.00,LWC V1.12 B30,2013-03-12 07:46:00,
2013-03-12 01:51:00,46.7,22.5,29.53,North,-999,0.0,0.0,38,0.00,,,0.00,LWC V1.12 B30,2013-03-12 07:51:00,
2013-03-12 01:56:00,46.6,22.4,29.53,North,-999,0.0,0.0,38,0.00,,,0.00,LWC V1.12 B30,2013-03-12 07:56:00,
2013-03-12 02:01:00,46.4,22.2,29.53,North,-999,0.0,0.0,38,0.00,,,0.00,LWC V1.12 B30,2013-03-12 08:01:00,
2013-03-12 02:06:00,46.4,22.8,29.53,North,-999,0.0,0.0,39,0.00,,,0.00,LWC V1.12 B30,2013-03-12 08:06:00,
2013-03-12 02:11:00,46.2,22.6,29.53,North,-999,0.0,0.0,39,0.00,,,0.00,LWC V1.12 B30,2013-03-12 08:11:00,
2013-03-12 02:16:00,46.0,22.4,29.53,North,-999,0.0,0.0,39,0.00,,,0.00,LWC V1.12 B30,2013-03-12 08:16:00,
2013-03-12 02:21:00,45.8,22.3,29.53,North,-999,0.0,0.0,39,0.00,,,0.00,LWC V1.12 B30,2013-03-12 08:21:00,
2013-03-12 02:26:00,45.7,22.2,29.53,North,-999,0.0,0.0,39,0.00,,,0.00,LWC V1.12 B30,2013-03-12 08:26:00,
2013-03-12 02:31:00,45.7,22.2,29.53,North,-999,0.0,0.0,39,0.00,,,0.00,LWC V1.12 B30,2013-03-12 08:31:00,
2013-03-12 02:36:00,45.6,22.7,29.53,North,-999,0.0,0.0,40,0.00,,,0.00,LWC V1.12 B30,2013-03-12 08:36:00,
2013-03-12 02:41:00,45.5,22.6,29.53,North,-999,0.0,0.0,40,0.00,,,0.00,LWC V1.12 B30,2013-03-12 08:41:00,
2013-03-12 02:47:00,45.5,22.6,29.53,North,-999,0.0,0.0,40,0.00,,,0.00,LWC V1.12 B30,2013-03-12 08:47:00,
2013-03-12 02:52:00,45.5,22.6,29.53,North,-999,0.0,0.0,40,0.00,,,0.00,LWC V1.12 B30,2013-03-12 08:52:00,
2013-03-12 02:57:00,45.5,22.0,29.53,North,-999,0.0,0.0,39,0.00,,,0.00,LWC V1.12 B30,2013-03-12 08:57:00,
2013-03-12 03:02:00,45.5,22.6,29.53,North,-999,0.0,0.0,40,0.00,,,0.00,LWC V1.12 B30,2013-03-12 09:02:00,
2013-03-12 03:07:00,45.5,22.6,29.53,North,-999,0.0,0.0,40,0.00,,,0.00,LWC V1.12 B30,2013-03-12 09:07:00,
2013-03-12 03:12:00,45.4,21.9,29.53,North,-999,0.0,0.0,39,0.00,,,0.00,LWC V1.12 B30,2013-03-12 09:12:00,
2013-03-12 03:17:00,45.4,22.5,29.53,North,-999,0.0,0.0,40,0.00,,,0.00,LWC V1.12 B30,2013-03-12 09:17:00,
2013-03-12 03:22:00,45.5,22.0,29.53,North,-999,0.0,0.0,39,0.00,,,0.00,LWC V1.12 B30,2013-03-12 09:22:00,
2013-03-12 03:27:00,45.3,21.8,29.53,North,-999,0.0,0.0,39,0.00,,,0.00,LWC V1.12 B30,2013-03-12 09:27:00,
2013-03-12 03:32:00,45.2,21.7,29.53,North,-999,0.0,0.0,39,0.00,,,0.00,LWC V1.12 B30,2013-03-12 09:32:00,
2013-03-12 03:37:00,45.1,22.2,29.53,North,-999,0.0,0.0,40,0.00,,,0.00,LWC V1.12 B30,2013-03-12 09:37:00,
2013-03-12 03:42:00,45.1,22.2,29.53,North,-999,0.0,0.0,40,0.00,,,0.00,LWC V1.12 B30,2013-03-12 09:42:00,
2013-03-12 03:47:00,45.0,21.5,29.53,North,-999,0.0,0.0,39,0.00,,,0.00,LWC V1.12 B30,2013-03-12 09:47:00,
2013-03-12 03:52:00,45.0,21.5,29.53,North,-999,0.0,0.0,39,0.00,,,0.00,LWC V1.12 B30,2013-03-12 09:52:00,
2013-03-12 03:57:00,44.9,22.6,29.53,North,-999,0.0,0.0,41,0.00,,,0.00,LWC V1.12 B30,2013-03-12 09:57:00,
2013-03-12 04:02:00,44.9,22.6,29.53,North,-999,0.0,0.0,41,0.00,,,0.00,LWC V1.12 B30,2013-03-12 10:02:00,
2013-03-12 04:07:00,44.7,23.0,29.53,North,-999,0.0,0.0,42,0.00,,,0.00,LWC V1.12 B30,2013-03-12 10:07:00,
2013-03-12 04:12:00,44.7,23.0,29.53,North,-999,0.0,0.0,42,0.00,,,0.00,LWC V1.12 B30,2013-03-12 10:12:00,
2013-03-12 04:17:00,44.6,22.9,29.53,North,-999,0.0,0.0,42,0.00,,,0.00,LWC V1.12 B30,2013-03-12 10:17:00,
2013-03-12 04:22:00,44.6,22.9,29.53,North,-999,0.0,0.0,42,0.00,,,0.00,LWC V1.12 B30,2013-03-12 10:22:00,
2013-03-12 04:27:00,44.6,23.5,29.53,North,-999,0.0,0.0,43,0.00,,,0.00,LWC V1.12 B30,2013-03-12 10:27:00,
2013-03-12 04:32:00,44.5,22.9,29.53,North,-999,0.0,0.0,42,0.00,,,0.00,LWC V1.12 B30,2013-03-12 10:32:00,
2013-03-12 04:37:00,44.3,22.7,29.53,North,-999,0.0,0.0,42,0.00,,,0.00,LWC V1.12 B30,2013-03-12 10:37:00,
2013-03-12 04:42:00,44.2,22.0,29.53,North,-999,0.0,0.0,41,0.00,,,0.00,LWC V1.12 B30,2013-03-12 10:42:00,
2013-03-12 04:48:00,44.1,21.9,29.53,North,-999,0.0,0.0,41,0.00,,,0.00,LWC V1.12 B30,2013-03-12 10:48:00,
2013-03-12 04:53:00,44.1,21.9,29.53,North,-999,0.0,0.0,41,0.00,,,0.00,LWC V1.12 B30,2013-03-12 10:53:00,
2013-03-12 04:58:00,43.9,21.7,29.53,North,-999,0.0,0.0,41,0.00,,,0.00,LWC V1.12 B30,2013-03-12 10:58:00,
2013-03-12 05:03:00,43.8,21.6,29.53,North,-999,0.0,0.0,41,0.00,,,0.00,LWC V1.12 B30,2013-03-12 11:03:00,
2013-03-12 05:08:00,43.6,21.5,29.53,North,-999,0.0,0.0,41,0.00,,,0.00,LWC V1.12 B30,2013-03-12 11:08:00,
2013-03-12 05:13:00,43.5,21.4,29.53,North,-999,0.0,0.0,41,0.00,,,0.00,LWC V1.12 B30,2013-03-12 11:13:00,
2013-03-12 05:18:00,43.2,21.7,29.53,North,-999,0.0,0.0,42,0.00,,,0.00,LWC V1.12 B30,2013-03-12 11:18:00,
2013-03-12 05:23:00,43.1,21.6,29.53,North,-999,0.0,0.0,42,0.00,,,0.00,LWC V1.12 B30,2013-03-12 11:23:00,
2013-03-12 05:28:00,43.0,21.5,29.53,North,-999,0.0,0.0,42,0.00,,,0.00,LWC V1.12 B30,2013-03-12 11:28:00,
2013-03-12 05:33:00,42.8,21.3,29.53,North,-999,0.0,0.0,42,0.00,,,0.00,LWC V1.12 B30,2013-03-12 11:33:00,
2013-03-12 05:38:00,42.7,21.2,29.53,North,-999,0.0,0.0,42,0.00,,,0.00,LWC V1.12 B30,2013-03-12 11:38:00,
2013-03-12 05:43:00,42.6,21.1,29.53,North,-999,0.0,0.0,42,0.00,,,0.00,LWC V1.12 B30,2013-03-12 11:43:00,
2013-03-12 05:48:00,42.5,21.0,29.53,North,-999,0.0,0.0,42,0.00,,,0.00,LWC V1.12 B30,2013-03-12 11:48:00,
2013-03-12 05:53:00,42.3,20.9,29.53,North,-999,0.0,0.0,42,0.00,,,0.00,LWC V1.12 B30,2013-03-12 11:53:00,
2013-03-12 05:58:00,42.3,20.9,29.53,North,-999,0.0,0.0,42,0.00,,,0.00,LWC V1.12 B30,2013-03-12 11:58:00,
2013-03-12 06:03:00,42.2,21.3,29.53,North,-999,0.0,0.0,43,0.00,,,0.00,LWC V1.12 B30,2013-03-12 12:03:00,
2013-03-12 06:08:00,42.1,20.7,29.53,North,-999,0.0,0.0,42,0.00,,,0.00,LWC V1.12 B30,2013-03-12 12:08:00,
2013-03-12 06:13:00,42.1,21.2,29.53,North,-999,0.0,0.0,43,0.00,,,0.00,LWC V1.12 B30,2013-03-12 12:13:00,
2013-03-12 06:18:00,42.0,21.7,29.53,North,-999,0.0,0.0,44,0.00,,,0.00,LWC V1.12 B30,2013-03-12 12:18:00,
2013-03-12 06:23:00,41.9,21.6,29.53,North,-999,0.0,0.0,44,0.00,,,0.00,LWC V1.12 B30,2013-03-12 12:23:00,
2013-03-12 06:28:00,41.9,21.6,29.53,North,-999,0.0,0.0,44,0.00,,,0.00,LWC V1.12 B30,2013-03-12 12:28:00,
2013-03-12 06:33:00,41.5,21.2,29.53,North,-999,0.0,0.0,44,0.00,,,0.00,LWC V1.12 B30,2013-03-12 12:33:00,
2013-03-12 06:38:00,41.4,22.2,29.53,North,-999,0.0,0.0,46,0.00,,,0.00,LWC V1.12 B30,2013-03-12 12:38:00,
2013-03-12 06:43:00,41.5,21.8,29.53,North,-999,0.0,0.0,45,0.00,,,0.00,LWC V1.12 B30,2013-03-12 12:43:00,
2013-03-12 06:48:00,41.4,21.1,29.53,North,-999,0.0,0.0,44,0.00,,,0.00,LWC V1.12 B30,2013-03-12 12:48:00,
2013-03-12 06:53:00,41.3,21.6,29.53,North,-999,0.0,0.0,45,0.00,,,0.00,LWC V1.12 B30,2013-03-12 12:53:00,
2013-03-12 06:58:00,41.2,21.5,29.53,North,-999,0.0,0.0,45,0.00,,,0.00,LWC V1.12 B30,2013-03-12 12:58:00,
2013-03-12 07:04:00,41.2,22.0,29.53,North,-999,0.0,0.0,46,0.00,,,0.00,LWC V1.12 B30,2013-03-12 13:04:00,
2013-03-12 07:09:00,41.2,21.5,29.53,North,-999,0.0,0.0,45,0.00,,,0.00,LWC V1.12 B30,2013-03-12 13:09:00,
2013-03-12 07:14:00,41.2,22.0,29.53,North,-999,0.0,0.0,46,0.00,,,0.00,LWC V1.12 B30,2013-03-12 13:14:00,
2013-03-12 07:19:00,41.0,21.8,29.53,North,-999,0.0,0.0,46,0.00,,,0.00,LWC V1.12 B30,2013-03-12 13:19:00,
2013-03-12 07:24:00,40.9,22.2,29.53,North,-999,0.0,0.0,47,0.00,,,0.00,LWC V1.12 B30,2013-03-12 13:24:00,
2013-03-12 07:29:00,40.9,22.2,29.53,North,-999,0.0,0.0,47,0.00,,,0.00,LWC V1.12 B30,2013-03-12 13:29:00,
2013-03-12 07:34:00,40.9,21.7,29.53,North,-999,0.0,0.0,46,0.00,,,0.00,LWC V1.12 B30,2013-03-12 13:34:00,
2013-03-12 07:39:00,40.8,22.1,29.53,North,-999,0.0,0.0,47,0.00,,,0.00,LWC V1.12 B30,2013-03-12 13:39:00,
2013-03-12 07:44:00,40.8,22.1,29.53,North,-999,0.0,0.0,47,0.00,,,0.00,LWC V1.12 B30,2013-03-12 13:44:00,
2013-03-12 07:49:00,40.8,22.1,29.53,North,-999,0.0,0.0,47,0.00,,,0.00,LWC V1.12 B30,2013-03-12 13:49:00,
2013-03-12 07:54:00,40.9,22.7,29.53,North,-999,0.0,0.0,48,0.00,,,0.00,LWC V1.12 B30,2013-03-12 13:54:00,
2013-03-12 07:59:00,41.2,23.0,29.53,North,-999,0.0,0.0,48,0.00,,,0.00,LWC V1.12 B30,2013-03-12 13:59:00,
2013-03-12 08:04:00,41.3,23.1,29.53,North,-999,0.0,0.0,48,0.00,,,0.00,LWC V1.12 B30,2013-03-12 14:04:00,
2013-03-12 08:09:00,41.3,22.6,29.53,North,-999,0.0,0.0,47,0.00,,,0.00,LWC V1.12 B30,2013-03-12 14:09:00,
2013-03-12 08:14:00,41.5,23.3,29.53,North,-999,0.0,0.0,48,0.00,,,0.00,LWC V1.12 B30,2013-03-12 14:14:00,
2013-03-12 08:19:00,41.8,23.6,29.53,North,-999,0.0,0.0,48,0.00,,,0.00,LWC V1.12 B30,2013-03-12 14:19:00,
2013-03-12 08:24:00,42.0,23.2,29.53,North,-999,0.0,0.0,47,0.00,,,0.00,LWC V1.12 B30,2013-03-12 14:24:00,
2013-03-12 08:29:00,42.3,23.0,29.53,North,-999,0.0,0.0,46,0.00,,,0.00,LWC V1.12 B30,2013-03-12 14:29:00,
2013-03-12 08:34:00,42.8,23.5,29.53,North,-999,0.0,0.0,46,0.00,,,0.00,LWC V1.12 B30,2013-03-12 14:34:00,
2013-03-12 08:39:00,43.5,23.6,29.53,North,-999,0.0,0.0,45,0.00,,,0.00,LWC V1.12 B30,2013-03-12 14:39:00,
2013-03-12 08:44:00,44.3,23.8,29.53,North,-999,0.0,0.0,44,0.00,,,0.00,LWC V1.12 B30,2013-03-12 14:44:00,
2013-03-12 08:49:00,45.3,23.0,29.53,North,-999,0.0,0.0,41,0.00,,,0.00,LWC V1.12 B30,2013-03-12 14:49:00,
2013-03-12 08:54:00,45.9,23.0,29.53,North,-999,0.0,0.0,40,0.00,,,0.00,LWC V1.12 B30,2013-03-12 14:54:00,
2013-03-12 09:00:00,46.5,22.9,29.53,North,-999,0.0,0.0,39,0.00,,,0.00,LWC V1.12 B30,2013-03-12 15:00:00,
2013-03-12 09:05:00,47.0,22.7,29.53,North,-999,0.0,0.0,38,0.00,,,0.00,LWC V1.12 B30,2013-03-12 15:05:00,
2013-03-12 09:10:00,47.4,22.5,29.53,North,-999,0.0,0.0,37,0.00,,,0.00,LWC V1.12 B30,2013-03-12 15:10:00,
2013-03-12 09:15:00,47.8,22.2,29.53,North,-999,0.0,0.0,36,0.00,,,0.00,LWC V1.12 B30,2013-03-12 15:15:00,
2013-03-12 09:20:00,48.1,22.4,29.53,North,-999,0.0,0.0,36,0.00,,,0.00,LWC V1.12 B30,2013-03-12 15:20:00,
2013-03-12 09:25:00,48.3,22.6,29.53,North,-999,0.0,0.0,36,0.00,,,0.00,LWC V1.12 B30,2013-03-12 15:25:00,
2013-03-12 09:30:00,48.5,22.8,29.53,North,-999,0.0,0.0,36,0.00,,,0.00,LWC V1.12 B30,2013-03-12 15:30:00,
2013-03-12 09:35:00,48.7,23.0,29.53,North,-999,0.0,0.0,36,0.00,,,0.00,LWC V1.12 B30,2013-03-12 15:35:00,
2013-03-12 09:40:00,48.8,23.0,29.53,North,-999,0.0,0.0,36,0.00,,,0.00,LWC V1.12 B30,2013-03-12 15:40:00,
2013-03-12 09:45:00,49.0,23.2,29.53,North,-999,0.0,0.0,36,0.00,,,0.00,LWC V1.12 B30,2013-03-12 15:45:00,
2013-03-12 09:50:00,49.1,23.3,29.53,North,-999,0.0,0.0,36,0.00,,,0.00,LWC V1.12 B30,2013-03-12 15:50:00,
2013-03-12 09:55:00,49.2,23.4,29.53,North,-999,0.0,0.0,36,0.00,,,0.00,LWC V1.12 B30,2013-03-12 15:55:00,
2013-03-12 10:00:00,49.4,22.9,29.53,North,-999,0.0,0.0,35,0.00,,,0.00,LWC V1.12 B30,2013-03-12 16:00:00,
2013-03-12 10:05:00,49.6,23.1,29.53,North,-999,0.0,0.0,35,0.00,,,0.00,LWC V1.12 B30,2013-03-12 16:05:00,
2013-03-12 10:10:00,49.7,23.2,29.53,North,-999,0.0,0.0,35,0.00,,,0.00,LWC V1.12 B30,2013-03-12 16:10:00,
2013-03-12 10:15:00,49.9,23.4,29.53,North,-999,0.0,0.0,35,0.00,,,0.00,LWC V1.12 B30,2013-03-12 16:15:00,
2013-03-12 10:20:00,49.9,22.7,29.53,North,-999,0.0,0.0,34,0.00,,,0.00,LWC V1.12 B30,2013-03-12 16:20:00,
2013-03-12 10:25:00,50.1,22.8,29.53,North,-999,0.0,0.0,34,0.00,,,0.00,LWC V1.12 B30,2013-03-12 16:25:00,
2013-03-12 10:30:00,50.3,23.0,29.53,North,-999,0.0,0.0,34,0.00,,,0.00,LWC V1.12 B30,2013-03-12 16:30:00,
2013-03-12 10:36:00,50.5,23.2,29.53,North,-999,0.0,0.0,34,0.00,,,0.00,LWC V1.12 B30,2013-03-12 16:36:00,
2013-03-12 10:41:00,50.9,23.5,29.53,North,-999,0.0,0.0,34,0.00,,,0.00,LWC V1.12 B30,2013-03-12 16:41:00,
2013-03-12 10:46:00,51.1,23.7,29.53,North,-999,0.0,0.0,34,0.00,,,0.00,LWC V1.12 B30,2013-03-12 16:46:00,
2013-03-12 10:51:00,51.2,23.8,29.53,North,-999,0.0,0.0,34,0.00,,,0.00,LWC V1.12 B30,2013-03-12 16:51:00,
2013-03-12 10:56:00,51.4,24.0,29.53,North,-999,0.0,0.0,34,0.00,,,0.00,LWC V1.12 B30,2013-03-12 16:56:00,
2013-03-12 11:01:00,51.7,23.5,29.53,North,-999,0.0,0.0,33,0.00,,,0.00,LWC V1.12 B30,2013-03-12 17:01:00,
2013-03-12 11:06:00,51.9,23.7,29.53,North,-999,0.0,0.0,33,0.00,,,0.00,LWC V1.12 B30,2013-03-12 17:06:00,
2013-03-12 11:11:00,52.0,23.8,29.53,North,-999,0.0,0.0,33,0.00,,,0.00,LWC V1.12 B30,2013-03-12 17:11:00,
2013-03-12 11:16:00,52.1,23.9,29.53,North,-999,0.0,0.0,33,0.00,,,0.00,LWC V1.12 B30,2013-03-12 17:16:00,
2013-03-12 11:21:00,52.2,24.0,29.53,North,-999,0.0,0.0,33,0.00,,,0.00,LWC V1.12 B30,2013-03-12 17:21:00,
2013-03-12 11:26:00,52.3,24.1,29.53,North,-999,0.0,0.0,33,0.00,,,0.00,LWC V1.12 B30,2013-03-12 17:26:00,
2013-03-12 11:31:00,52.6,24.3,29.53,North,-999,0.0,0.0,33,0.00,,,0.00,LWC V1.12 B30,2013-03-12 17:31:00,
2013-03-12 11:36:00,52.8,24.5,29.53,North,-999,0.0,0.0,33,0.00,,,0.00,LWC V1.12 B30,2013-03-12 17:36:00,
2013-03-12 11:41:00,53.0,24.7,29.53,North,-999,0.0,0.0,33,0.00,,,0.00,LWC V1.12 B30,2013-03-12 17:41:00,
2013-03-12 11:46:00,53.3,24.9,29.53,North,-999,0.0,0.0,33,0.00,,,0.00,LWC V1.12 B30,2013-03-12 17:46:00,
2013-03-12 11:51:00,53.6,24.5,29.53,North,-999,0.0,0.0,32,0.00,,,0.00,LWC V1.12 B30,2013-03-12 17:51:00,
2013-03-12 11:56:00,53.7,24.6,29.53,North,-999,0.0,0.0,32,0.00,,,0.00,LWC V1.12 B30,2013-03-12 17:56:00,
2013-03-12 12:01:00,53.7,23.8,29.53,North,-999,0.0,0.0,31,0.00,,,0.00,LWC V1.12 B30,2013-03-12 18:01:00,
2013-03-12 12:06:00,53.9,24.7,29.53,North,-999,0.0,0.0,32,0.00,,,0.00,LWC V1.12 B30,2013-03-12 18:06:00,
2013-03-12 12:11:00,54.1,24.9,29.53,North,-999,0.0,0.0,32,0.00,,,0.00,LWC V1.12 B30,2013-03-12 18:11:00,
2013-03-12 12:16:00,54.4,25.2,29.53,North,-999,0.0,0.0,32,0.00,,,0.00,LWC V1.12 B30,2013-03-12 18:16:00,
2013-03-12 12:21:00,54.6,24.6,29.53,North,-999,0.0,0.0,31,0.00,,,0.00,LWC V1.12 B30,2013-03-12 18:21:00,
2013-03-12 12:27:00,55.1,24.2,29.53,North,-999,0.0,0.0,30,0.00,,,0.00,LWC V1.12 B30,2013-03-12 18:27:00,
2013-03-12 12:32:00,55.4,22.8,29.53,North,-999,0.0,0.0,28,0.00,,,0.00,LWC V1.12 B30,2013-03-12 18:32:00,
2013-03-12 12:37:00,55.7,23.1,29.53,North,-999,0.0,0.0,28,0.00,,,0.00,LWC V1.12 B30,2013-03-12 18:37:00,
2013-03-12 12:42:00,56.0,24.2,29.53,North,-999,0.0,0.0,29,0.00,,,0.00,LWC V1.12 B30,2013-03-12 18:42:00,
2013-03-12 12:47:00,56.1,23.5,29.53,North,-999,0.0,0.0,28,0.00,,,0.00,LWC V1.12 B30,2013-03-12 18:47:00,
2013-03-12 12:52:00,56.3,23.6,29.53,North,-999,0.0,0.0,28,0.00,,,0.00,LWC V1.12 B30,2013-03-12 18:52:00,
2013-03-12 12:57:00,56.3,22.8,29.53,North,-999,0.0,0.0,27,0.00,,,0.00,LWC V1.12 B30,2013-03-12 18:57:00,
2013-03-12 13:02:00,56.5,23.8,29.53,North,-999,0.0,0.0,28,0.00,,,0.00,LWC V1.12 B30,2013-03-12 19:02:00,
2013-03-12 13:07:00,56.7,23.1,29.53,North,-999,0.0,0.0,27,0.00,,,0.00,LWC V1.12 B30,2013-03-12 19:07:00,
2013-03-12 13:12:00,56.9,23.3,29.53,North,-999,0.0,0.0,27,0.00,,,0.00,LWC V1.12 B30,2013-03-12 19:12:00,
2013-03-12 13:17:00,57.1,23.4,29.53,North,-999,0.0,0.0,27,0.00,,,0.00,LWC V1.12 B30,2013-03-12 19:17:00,
2013-03-12 13:22:00,57.3,23.6,29.53,North,-999,0.0,0.0,27,0.00,,,0.00,LWC V1.12 B30,2013-03-12 19:22:00,
2013-03-12 13:27:00,57.5,23.8,29.53,North,-999,0.0,0.0,27,0.00,,,0.00,LWC V1.12 B30,2013-03-12 19:27:00,
2013-03-12 13:32:00,57.6,23.9,29.53,North,-999,0.0,0.0,27,0.00,,,0.00,LWC V1.12 B30,2013-03-12 19:32:00,
2013-03-12 13:37:00,57.6,23.9,29.53,North,-999,0.0,0.0,27,0.00,,,0.00,LWC V1.12 B30,2013-03-12 19:37:00,
2013-03-12 13:42:00,57.8,24.0,29.53,North,-999,0.0,0.0,27,0.00,,,0.00,LWC V1.12 B30,2013-03-12 19:42:00,
2013-03-12 13:47:00,57.8,24.0,29.53,North,-999,0.0,0.0,27,0.00,,,0.00,LWC V1.12 B30,2013-03-12 19:47:00,
2013-03-12 13:52:00,57.9,24.1,29.53,North,-999,0.0,0.0,27,0.00,,,0.00,LWC V1.12 B30,2013-03-12 19:52:00,
2013-03-12 13:57:00,58.1,23.4,29.53,North,-999,0.0,0.0,26,0.00,,,0.00,LWC V1.12 B30,2013-03-12 19:57:00,
2013-03-12 14:02:00,58.2,23.5,29.53,North,-999,0.0,0.0,26,0.00,,,0.00,LWC V1.12 B30,2013-03-12 20:02:00,
2013-03-12 14:07:00,58.1,24.3,29.53,North,-999,0.0,0.0,27,0.00,,,0.00,LWC V1.12 B30,2013-03-12 20:07:00,
2013-03-12 14:12:00,58.2,23.5,29.53,North,-999,0.0,0.0,26,0.00,,,0.00,LWC V1.12 B30,2013-03-12 20:12:00,
2013-03-12 14:17:00,58.4,23.7,29.53,North,-999,0.0,0.0,26,0.00,,,0.00,LWC V1.12 B30,2013-03-12 20:17:00,
2013-03-12 14:22:00,58.5,23.7,29.53,North,-999,0.0,0.0,26,0.00,,,0.00,LWC V1.12 B30,2013-03-12 20:22:00,
2013-03-12 14:27:00,58.8,24.0,29.53,North,-999,0.0,0.0,26,0.00,,,0.00,LWC V1.12 B30,2013-03-12 20:27:00,
2013-03-12 14:33:00,58.7,23.9,29.53,North,-999,0.0,0.0,26,0.00,,,0.00,LWC V1.12 B30,2013-03-12 20:33:00,
2013-03-12 14:38:00,58.8,23.1,29.53,North,-999,0.0,0.0,25,0.00,,,0.00,LWC V1.12 B30,2013-03-12 20:38:00,
2013-03-12 14:43:00,58.8,23.1,29.53,North,-999,0.0,0.0,25,0.00,,,0.00,LWC V1.12 B30,2013-03-12 20:43:00,
2013-03-12 14:48:00,58.7,23.0,29.53,North,-999,0.0,0.0,25,0.00,,,0.00,LWC V1.12 B30,2013-03-12 20:48:00,
2013-03-12 14:53:00,58.8,23.1,29.53,North,-999,0.0,0.0,25,0.00,,,0.00,LWC V1.12 B30,2013-03-12 20:53:00,
2013-03-12 14:58:00,58.8,23.1,29.53,North,-999,0.0,0.0,25,0.00,,,0.00,LWC V1.12 B30,2013-03-12 20:58:00,
2013-03-12 15:03:00,59.0,23.2,29.53,North,-999,0.0,0.0,25,0.00,,,0.00,LWC V1.12 B30,2013-03-12 21:03:00,
2013-03-12 15:08:00,59.2,23.4,29.53,North,-999,0.0,0.0,25,0.00,,,0.00,LWC V1.12 B30,2013-03-12 21:08:00,
2013-03-12 15:13:00,59.3,22.5,29.53,North,-999,0.0,0.0,24,0.00,,,0.00,LWC V1.12 B30,2013-03-12 21:13:00,
2013-03-12 15:18:00,59.3,23.5,29.53,North,-999,0.0,0.0,25,0.00,,,0.00,LWC V1.12 B30,2013-03-12 21:18:00,
2013-03-12 15:23:00,59.5,23.7,29.53,North,-999,0.0,0.0,25,0.00,,,0.00,LWC V1.12 B30,2013-03-12 21:23:00,
2013-03-12 15:28:00,59.7,22.9,29.53,North,-999,0.0,0.0,24,0.00,,,0.00,LWC V1.12 B30,2013-03-12 21:28:00,
2013-03-12 15:33:00,59.8,22.9,29.53,North,-999,0.0,0.0,24,0.00,,,0.00,LWC V1.12 B30,2013-03-12 21:33:00,
2013-03-12 15:38:00,59.9,24.0,29.53,North,-999,0.0,0.0,25,0.00,,,0.00,LWC V1.12 B30,2013-03-12 21:38:00,
2013-03-12 15:43:00,59.9,23.0,29.53,North,-999,0.0,0.0,24,0.00,,,0.00,LWC V1.12 B30,2013-03-12 21:43:00,
2013-03-12 15:49:00,60.1,23.2,29.53,North,-999,0.0,0.0,24,0.00,,,0.00,LWC V1.12 B30,2013-03-12 21:49:00,
2013-03-12 15:54:00,60.3,23.4,29.53,North,-999,0.0,0.0,24,0.00,,,0.00,LWC V1.12 B30,2013-03-12 21:54:00,
2013-03-12 15:59:00,60.5,23.5,29.53,North,-999,0.0,0.0,24,0.00,,,0.00,LWC V1.12 B30,2013-03-12 21:59:00,
2013-03-12 16:04:00,60.8,23.8,29.53,North,-999,0.0,0.0,24,0.00,,,0.00,LWC V1.12 B30,2013-03-12 22:04:00,
2013-03-12 16:09:00,60.6,23.6,29.53,North,-999,0.0,0.0,24,0.00,,,0.00,LWC V1.12 B30,2013-03-12 22:09:00,
2013-03-12 16:14:00,60.5,23.5,29.53,North,-999,0.0,0.0,24,0.00,,,0.00,LWC V1.12 B30,2013-03-12 22:14:00,
2013-03-12 16:19:00,60.3,23.4,29.53,North,-999,0.0,0.0,24,0.00,,,0.00,LWC V1.12 B30,2013-03-12 22:19:00,
2013-03-12 16:24:00,60.2,23.3,29.53,North,-999,0.0,0.0,24,0.00,,,0.00,LWC V1.12 B30,2013-03-12 22:24:00,
2013-03-12 16:29:00,60.2,23.3,29.53,North,-999,0.0,0.0,24,0.00,,,0.00,LWC V1.12 B30,2013-03-12 22:29:00,
2013-03-12 16:34:00,60.3,23.4,29.53,North,-999,0.0,0.0,24,0.00,,,0.00,LWC V1.12 B30,2013-03-12 22:34:00,
2013-03-12 16:39:00,60.3,23.4,29.53,North,-999,0.0,0.0,24,0.00,,,0.00,LWC V1.12 B30,2013-03-12 22:39:00,
2013-03-12 16:44:00,60.3,23.4,29.53,North,-999,0.0,0.0,24,0.00,,,0.00,LWC V1.12 B30,2013-03-12 22:44:00,
2013-03-12 16:49:00,60.4,23.4,29.53,North,-999,0.0,0.0,24,0.00,,,0.00,LWC V1.12 B30,2013-03-12 22:49:00,
2013-03-12 16:54:00,60.3,23.4,29.53,North,-999,0.0,0.0,24,0.00,,,0.00,LWC V1.12 B30,2013-03-12 22:54:00,
2013-03-12 16:59:00,60.3,23.4,29.53,North,-999,0.0,0.0,24,0.00,,,0.00,LWC V1.12 B30,2013-03-12 22:59:00,
2013-03-12 17:04:00,60.5,23.5,29.53,North,-999,0.0,0.0,24,0.00,,,0.00,LWC V1.12 B30,2013-03-12 23:04:00,
2013-03-12 17:09:00,60.6,23.6,29.53,North,-999,0.0,0.0,24,0.00,,,0.00,LWC V1.12 B30,2013-03-12 23:09:00,
2013-03-12 17:14:00,60.7,23.7,29.53,North,-999,0.0,0.0,24,0.00,,,0.00,LWC V1.12 B30,2013-03-12 23:14:00,
2013-03-12 17:19:00,60.7,23.7,29.53,North,-999,0.0,0.0,24,0.00,,,0.00,LWC V1.12 B30,2013-03-12 23:19:00,
2013-03-12 17:24:00,60.8,22.8,29.53,North,-999,0.0,0.0,23,0.00,,,0.00,LWC V1.12 B30,2013-03-12 23:24:00,
2013-03-12 17:29:00,61.0,22.9,29.53,North,-999,0.0,0.0,23,0.00,,,0.00,LWC V1.12 B30,2013-03-12 23:29:00,
2013-03-12 17:34:00,61.1,23.0,29.53,North,-999,0.0,0.0,23,0.00,,,0.00,LWC V1.12 B30,2013-03-12 23:34:00,
2013-03-12 17:39:00,61.1,23.0,29.53,North,-999,0.0,0.0,23,0.00,,,0.00,LWC V1.12 B30,2013-03-12 23:39:00,
2013-03-12 17:44:00,61.2,23.1,29.53,North,-999,0.0,0.0,23,0.00,,,0.00,LWC V1.12 B30,2013-03-12 23:44:00,
2013-03-12 17:50:00,61.2,23.1,29.53,North,-999,0.0,0.0,23,0.00,,,0.00,LWC V1.12 B30,2013-03-12 23:50:00,
2013-03-12 17:55:00,61.2,23.1,29.53,North,-999,0.0,0.0,23,0.00,,,0.00,LWC V1.12 B30,2013-03-12 23:55:00,
2013-03-12 18:00:00,61.0,22.9,29.53,North,-999,0.0,0.0,23,0.00,,,0.00,LWC V1.12 B30,2013-03-13 00:00:00,
2013-03-12 18:05:00,60.9,22.9,29.53,North,-999,0.0,0.0,23,0.00,,,0.00,LWC V1.12 B30,2013-03-13 00:05:00,
2013-03-12 18:10:00,60.9,22.9,29.53,North,-999,0.0,0.0,23,0.00,,,0.00,LWC V1.12 B30,2013-03-13 00:10:00,
2013-03-12 18:15:00,60.8,22.8,29.53,North,-999,0.0,0.0,23,0.00,,,0.00,LWC V1.12 B30,2013-03-13 00:15:00,
2013-03-12 18:20:00,60.8,22.8,29.53,North,-999,0.0,0.0,23,0.00,,,0.00,LWC V1.12 B30,2013-03-13 00:20:00,
2013-03-12 18:25:00,60.7,23.7,29.53,North,-999,0.0,0.0,24,0.00,,,0.00,LWC V1.12 B30,2013-03-13 00:25:00,
2013-03-12 18:30:00,60.5,23.5,29.53,North,-999,0.0,0.0,24,0.00,,,0.00,LWC V1.12 B30,2013-03-13 00:30:00,
2013-03-12 18:35:00,60.3,22.4,29.53,North,-999,0.0,0.0,23,0.00,,,0.00,LWC V1.12 B30,2013-03-13 00:35:00,
2013-03-12 18:40:00,60.2,22.3,29.53,North,-999,0.0,0.0,23,0.00,,,0.00,LWC V1.12 B30,2013-03-13 00:40:00,
2013-03-12 18:45:00,60.1,23.2,29.53,North,-999,0.0,0.0,24,0.00,,,0.00,LWC V1.12 B30,2013-03-13 00:45:00,
2013-03-12 18:50:00,59.7,22.9,29.53,North,-999,0.0,0.0,24,0.00,,,0.00,LWC V1.12 B30,2013-03-13 00:50:00,
2013-03-12 18:55:00,59.5,22.7,29.53,North,-999,0.0,0.0,24,0.00,,,0.00,LWC V1.12 B30,2013-03-13 00:55:00,
2013-03-12 19:00:00,59.3,22.5,29.53,North,-999,0.0,0.0,24,0.00,,,0.00,LWC V1.12 B30,2013-03-13 01:00:00,
2013-03-12 19:05:00,59.2,22.4,29.53,North,-999,0.0,0.0,24,0.00,,,0.00,LWC V1.12 B30,2013-03-13 01:05:00,
2013-03-12 19:10:00,59.0,23.2,29.53,North,-999,0.0,0.0,25,0.00,,,0.00,LWC V1.12 B30,2013-03-13 01:10:00,
2013-03-12 19:15:00,58.9,23.1,29.53,North,-999,0.0,0.0,25,0.00,,,0.00,LWC V1.12 B30,2013-03-13 01:15:00,
2013-03-12 19:20:00,58.6,22.9,29.53,North,-999,0.0,0.0,25,0.00,,,0.00,LWC V1.12 B30,2013-03-13 01:20:00,
2013-03-12 19:25:00,58.5,23.7,29.53,North,-999,0.0,0.0,26,0.00,,,0.00,LWC V1.12 B30,2013-03-13 01:25:00,
2013-03-12 19:30:00,58.2,23.5,29.53,North,-999,0.0,0.0,26,0.00,,,0.00,LWC V1.12 B30,2013-03-13 01:30:00,
2013-03-12 19:35:00,57.9,23.2,29.53,North,-999,0.0,0.0,26,0.00,,,0.00,LWC V1.12 B30,2013-03-13 01:35:00,
2013-03-12 19:40:00,57.7,24.0,29.53,North,-999,0.0,0.0,27,0.00,,,0.00,LWC V1.12 B30,2013-03-13 01:40:00,
2013-03-12 19:45:00,57.6,23.9,29.53,North,-999,0.0,0.0,27,0.00,,,0.00,LWC V1.12 B30,2013-03-13 01:45:00,
2013-03-12 19:50:00,57.5,23.8,29.53,North,-999,0.0,0.0,27,0.00,,,0.00,LWC V1.12 B30,2013-03-13 01:50:00,
2013-03-12 19:55:00,57.6,23.0,29.53,North,-999,0.0,0.0,26,0.00,,,0.00,LWC V1.12 B30,2013-03-13 01:55:00,
2013-03-12 20:00:00,57.7,23.1,29.53,North,-999,0.0,0.0,26,0.00,,,0.00,LWC V1.12 B30,2013-03-13 02:00:00,
2013-03-12 20:05:00,57.7,22.1,29.53,North,-999,0.0,0.0,25,0.00,,,0.00,LWC V1.12 B30,2013-03-13 02:05:00,
2013-03-12 20:11:00,57.4,22.8,29.53,North,-999,0.0,0.0,26,0.00,,,0.00,LWC V1.12 B30,2013-03-13 02:11:00,
2013-03-12 20:16:00,57.2,22.6,29.53,North,-999,0.0,0.0,26,0.00,,,0.00,LWC V1.12 B30,2013-03-13 02:16:00,
2013-03-12 20:21:00,56.9,23.3,29.53,North,-999,0.0,0.0,27,0.00,,,0.00,LWC V1.12 B30,2013-03-13 02:21:00,
2013-03-12 20:26:00,56.6,23.0,29.53,North,-999,0.0,0.0,27,0.00,,,0.00,LWC V1.12 B30,2013-03-13 02:26:00,
2013-03-12 20:31:00,56.5,22.9,29.53,North,-999,0.0,0.0,27,0.00,,,0.00,LWC V1.12 B30,2013-03-13 02:31:00,
2013-03-12 20:36:00,56.3,22.8,29.53,North,-999,0.0,0.0,27,0.00,,,0.00,LWC V1.12 B30,2013-03-13 02:36:00,
2013-03-12 20:41:00,56.2,22.7,29.53,North,-999,0.0,0.0,27,0.00,,,0.00,LWC V1.12 B30,2013-03-13 02:41:00,
2013-03-12 20:46:00,56.0,22.5,29.53,North,-999,0.0,0.0,27,0.00,,,0.00,LWC V1.12 B30,2013-03-13 02:46:00,
2013-03-12 20:51:00,55.8,23.2,29.53,North,-999,0.0,0.0,28,0.00,,,0.00,LWC V1.12 B30,2013-03-13 02:51:00,
2013-03-12 20:56:00,55.6,23.0,29.53,North,-999,0.0,0.0,28,0.00,,,0.00,LWC V1.12 B30,2013-03-13 02:56:00,
2013-03-12 21:01:00,55.4,23.7,29.53,North,-999,0.0,0.0,29,0.00,,,0.00,LWC V1.12 B30,2013-03-13 03:01:00,
2013-03-12 21:06:00,55.2,22.7,29.53,North,-999,0.0,0.0,28,0.00,,,0.00,LWC V1.12 B30,2013-03-13 03:06:00,
2013-03-12 21:12:00,55.0,23.3,29.53,North,-999,0.0,0.0,29,0.00,,,0.00,LWC V1.12 B30,2013-03-13 03:12:00,
2013-03-12 21:17:00,54.9,24.1,29.53,North,-999,0.0,0.0,30,0.00,,,0.00,LWC V1.12 B30,2013-03-13 03:17:00,
2013-03-12 21:22:00,54.8,24.0,29.53,North,-999,0.0,0.0,30,0.00,,,0.00,LWC V1.12 B30,2013-03-13 03:22:00,
2013-03-12 21:27:00,54.7,23.9,29.53,North,-999,0.0,0.0,30,0.00,,,0.00,LWC V1.12 B30,2013-03-13 03:27:00,
2013-03-12 21:32:00,54.5,24.5,29.53,North,-999,0.0,0.0,31,0.00,,,0.00,LWC V1.12 B30,2013-03-13 03:32:00,
2013-03-12 21:37:00,54.5,24.5,29.53,North,-999,0.0,0.0,31,0.00,,,0.00,LWC V1.12 B30,2013-03-13 03:37:00,
2013-03-12 21:42:00,54.3,24.3,29.53,North,-999,0.0,0.0,31,0.00,,,0.00,LWC V1.12 B30,2013-03-13 03:42:00,
2013-03-12 21:47:00,54.2,24.2,29.53,North,-999,0.0,0.0,31,0.00,,,0.00,LWC V1.12 B30,2013-03-13 03:47:00,
2013-03-12 21:52:00,54.0,24.8,29.53,North,-999,0.0,0.0,32,0.00,,,0.00,LWC V1.12 B30,2013-03-13 03:52:00,
2013-03-12 21:57:00,53.9,24.0,29.53,North,-999,0.0,0.0,31,0.00,,,0.00,LWC V1.12 B30,2013-03-13 03:57:00,
2013-03-12 22:00:00,53.8,24.6,29.53,North,-999,0.0,0.0,32,0.00,,,0.00,LWC V1.12 B30,2013-03-13 04:00:00,
2013-03-12 22:01:00,53.7,24.6,29.53,North,-999,0.0,0.0,32,0.00,,,0.00,LWC V1.12 B30,2013-03-13 04:01:00,
2013-03-12 22:03:00,53.7,23.8,29.53,North,-999,0.0,0.0,31,0.00,,,0.00,LWC V1.12 B30,2013-03-13 04:03:00,
2013-03-12 22:08:00,53.6,24.5,29.53,North,-999,0.0,0.0,32,0.00,,,0.00,LWC V1.12 B30,2013-03-13 04:08:00,
2013-03-12 22:14:00,53.6,24.5,29.53,North,-999,0.0,0.0,32,0.00,,,0.00,LWC V1.12 B30,2013-03-13 04:14:00,
2013-03-12 22:18:00,53.5,25.1,29.53,North,-999,0.0,0.0,33,0.00,,,0.00,LWC V1.12 B30,2013-03-13 04:18:00,
2013-03-12 22:23:00,53.4,24.3,29.53,North,-999,0.0,0.0,32,0.00,,,0.00,LWC V1.12 B30,2013-03-13 04:23:00,
2013-03-12 22:28:00,53.3,23.4,29.53,North,-999,0.0,0.0,31,0.00,,,0.00,LWC V1.12 B30,2013-03-13 04:28:00,
2013-03-12 22:33:00,53.1,24.0,29.53,North,-999,0.0,0.0,32,0.00,,,0.00,LWC V1.12 B30,2013-03-13 04:33:00,
2013-03-12 22:38:00,53.0,23.9,29.53,North,-999,0.0,0.0,32,0.00,,,0.00,LWC V1.12 B30,2013-03-13 04:38:00,
2013-03-12 22:43:00,53.0,23.9,29.53,North,-999,0.0,0.0,32,0.00,,,0.00,LWC V1.12 B30,2013-03-13 04:43:00,
2013-03-12 22:48:00,52.8,24.5,29.53,North,-999,0.0,0.0,33,0.00,,,0.00,LWC V1.12 B30,2013-03-13 04:48:00,
2013-03-12 22:53:00,52.7,24.4,29.53,North,-999,0.0,0.0,33,0.00,,,0.00,LWC V1.12 B30,2013-03-13 04:53:00,
2013-03-12 22:58:00,52.5,24.2,29.53,North,-999,0.0,0.0,33,0.00,,,0.00,LWC V1.12 B30,2013-03-13 04:58:00,
2013-03-12 23:03:00,52.4,24.2,29.53,North,-999,0.0,0.0,33,0.00,,,0.00,LWC V1.12 B30,2013-03-13 05:03:00,
2013-03-12 23:08:00,52.4,24.9,29.53,North,-999,0.0,0.0,34,0.00,,,0.00,LWC V1.12 B30,2013-03-13 05:08:00,
2013-03-12 23:13:00,52.3,24.8,29.53,North,-999,0.0,0.0,34,0.00,,,0.00,LWC V1.12 B30,2013-03-13 05:13:00,
2013-03-12 23:18:00,52.2,24.7,29.53,North,-999,0.0,0.0,34,0.00,,,0.00,LWC V1.12 B30,2013-03-13 05:18:00,
2013-03-12 23:23:00,52.1,25.3,29.53,North,-999,0.0,0.0,35,0.00,,,0.00,LWC V1.12 B30,2013-03-13 05:23:00,
2013-03-12 23:28:00,52.0,25.2,29.53,North,-999,0.0,0.0,35,0.00,,,0.00,LWC V1.12 B30,2013-03-13 05:28:00,
2013-03-12 23:33:00,51.7,24.9,29.53,North,-999,0.0,0.0,35,0.00,,,0.00,LWC V1.12 B30,2013-03-13 05:33:00,
2013-03-12 23:38:00,51.7,24.2,29.53,North,-999,0.0,0.0,34,0.00,,,0.00,LWC V1.12 B30,2013-03-13 05:38:00,
2013-03-12 23:43:00,51.6,24.2,29.53,North,-999,0.0,0.0,34,0.00,,,0.00,LWC V1.12 B30,2013-03-13 05:43:00,
2013-03-12 23:48:00,51.5,24.8,29.53,North,-999,0.0,0.0,35,0.00,,,0.00,LWC V1.12 B30,2013-03-13 05:48:00,
2013-03-12 23:53:00,51.4,25.4,29.53,North,-999,0.0,0.0,36,0.00,,,0.00,LWC V1.12 B30,2013-03-13 05:53:00,
2013-03-12 23:59:00,51.3,25.3,29.53,North,-999,0.0,0.0,36,0.00,,,0.00,LWC V1.12 B30,2013-03-13 05:59:00,